Location: Olsztyn
(53.7767°N, 20.4765°E)
Time: 14:57:51
(UTC+02:00)

Transit 2A - All Passes

Search period start: 19 July 2024 00:00
Search period end: 29 July 2024 00:00
Orbit: 591 x 960 km, 66.7° (Epoch: 18 July)

Date Brightness Start Highest point End Pass type
(mag) Time Alt. Az. Time Alt. Az. Time Alt. Az.
19 Jul - 08:25:09 10° SSE 08:29:14 22° ESE 08:33:38 10° ENE daylight
19 Jul - 10:06:10 10° SW 10:11:38 88° NW 10:17:42 10° NE daylight
19 Jul - 11:50:26 10° W 11:55:35 34° NNW 12:01:09 10° NE daylight
19 Jul - 13:35:42 10° NW 13:40:31 24° N 13:45:32 10° NE daylight
19 Jul - 15:19:52 10° NW 15:25:26 34° NNE 15:31:10 10° E daylight
19 Jul - 17:03:10 10° NW 17:09:28 82° NE 17:15:51 10° SE daylight
19 Jul - 18:46:54 10° NW 18:52:10 29° WSW 18:57:27 10° SSW daylight
20 Jul - 07:51:03 10° SE 07:54:17 16° ESE 07:57:43 10° ENE daylight
20 Jul - 09:30:58 10° SSW 09:36:22 72° SE 09:42:22 10° NE daylight
20 Jul - 11:14:45 10° W 11:20:02 39° NNW 11:25:47 10° NE daylight
20 Jul - 13:00:01 10° WNW 13:04:49 25° N 13:09:52 10° NE daylight
20 Jul - 14:44:29 10° NW 14:49:51 30° NNE 14:55:22 10° E daylight
20 Jul - 16:27:52 10° NW 16:34:06 67° NE 16:40:27 10° SE daylight
20 Jul - 18:11:22 10° NW 18:17:06 38° WSW 18:22:50 10° S daylight
21 Jul - 07:17:48 10° ESE 07:19:25 11° E 07:21:04 10° E daylight
21 Jul - 08:55:55 10° SSW 09:01:10 54° ESE 09:06:59 10° NE daylight
21 Jul - 10:39:08 10° WSW 10:44:32 46° NW 10:50:26 10° NE daylight
21 Jul - 12:24:18 10° WNW 12:29:09 26° N 12:34:18 10° NE daylight
21 Jul - 14:09:02 10° NW 14:14:12 27° NNE 14:19:34 10° ENE daylight
21 Jul - 15:52:33 10° NW 15:58:41 54° NE 16:04:55 10° ESE daylight
21 Jul - 17:35:55 10° NW 17:41:58 49° WSW 17:48:01 10° SSE daylight
21 Jul - 19:21:57 10° W 19:23:49 11° W 19:25:39 10° WSW daylight
22 Jul - 08:21:01 10° S 08:26:02 40° ESE 08:31:33 10° NE daylight
22 Jul - 10:03:36 10° WSW 10:09:05 57° NW 10:15:07 10° NE daylight
22 Jul - 11:48:33 10° WNW 11:53:30 27° NNW 11:58:46 10° NE daylight
22 Jul - 13:33:32 10° NW 13:38:34 26° N 13:43:46 10° ENE daylight
22 Jul - 15:17:15 10° NW 15:23:13 45° NE 15:29:19 10° ESE daylight
22 Jul - 17:00:32 10° NW 17:06:46 64° WSW 17:13:01 10° SSE daylight
22 Jul - 18:45:14 10° WNW 18:48:54 16° WSW 18:52:34 10° SW daylight
23 Jul - 07:46:18 10° S 07:50:58 30° ESE 07:56:01 10° NE daylight
23 Jul - 09:28:09 10° SW 09:33:41 71° NW 09:39:47 10° NE daylight
23 Jul - 11:12:48 10° W 11:17:53 30° NNW 11:23:19 10° NE daylight
23 Jul - 12:57:59 10° NW 13:02:53 25° N 13:08:00 10° ENE daylight
23 Jul - 14:41:55 10° NW 14:47:43 39° NNE 14:53:38 10° E daylight
23 Jul - 16:25:11 10° NW 16:31:31 81° SW 16:37:52 10° SSE daylight
23 Jul - 18:09:17 10° WNW 18:13:57 22° WSW 18:18:35 10° SSW daylight
24 Jul - 07:11:51 10° SSE 07:15:58 22° ESE 07:20:22 10° ENE daylight
24 Jul - 08:52:50 10° SW 08:58:21 90° NW 09:04:28 10° NE daylight
24 Jul - 10:37:04 10° W 10:42:17 34° NNW 10:47:55 10° NE daylight
24 Jul - 12:22:21 10° NW 12:27:13 24° N 12:32:16 10° NE daylight
24 Jul - 14:06:34 10° NW 14:12:09 34° NNE 14:17:53 10° E daylight
24 Jul - 15:49:52 10° NW 15:56:12 81° NE 16:02:34 10° SE daylight
24 Jul - 17:33:35 10° NW 17:38:55 29° WSW 17:44:13 10° SSW daylight
25 Jul - 06:37:46 10° SE 06:41:01 16° ESE 06:44:27 10° ENE daylight
25 Jul - 08:17:38 10° SSW 08:23:04 71° SE 08:29:07 10° NE daylight
25 Jul - 10:01:23 10° W 10:06:44 40° NNW 10:12:32 10° NE daylight
25 Jul - 11:46:39 10° WNW 11:51:31 25° N 11:56:37 10° NE daylight
25 Jul - 13:31:10 10° NW 13:36:33 30° NNE 13:42:04 10° E daylight
25 Jul - 15:14:33 10° NW 15:20:50 66° NE 15:27:09 10° SE daylight
25 Jul - 16:58:04 10° NW 17:03:51 38° WSW 17:09:35 10° S daylight
26 Jul - 06:04:35 10° ESE 06:06:08 11° E 06:07:44 10° E daylight
26 Jul - 07:42:34 10° SSW 07:47:53 53° ESE 07:53:45 10° NE daylight
26 Jul - 09:25:46 10° WSW 09:31:14 47° NW 09:37:11 10° NE daylight
26 Jul - 11:10:55 10° WNW 11:15:51 26° N 11:21:02 10° NE daylight
26 Jul - 12:55:43 10° NW 13:00:55 27° NNE 13:06:16 10° ENE daylight
26 Jul - 14:39:15 10° NW 14:45:24 54° NE 14:51:38 10° ESE daylight
26 Jul - 16:22:37 10° NW 16:28:42 50° WSW 16:34:45 10° SSE daylight
26 Jul - 18:08:30 10° W 18:10:33 12° W 18:12:36 10° WSW daylight
27 Jul - 07:07:40 10° S 07:12:44 40° ESE 07:18:18 10° NE daylight
27 Jul - 08:50:13 10° WSW 08:55:46 58° NW 09:01:52 10° NE daylight
27 Jul - 10:35:10 10° WNW 10:40:12 28° NNW 10:45:31 10° NE daylight
27 Jul - 12:20:12 10° NW 12:25:15 26° N 12:30:28 10° ENE daylight
27 Jul - 14:03:56 10° NW 14:09:56 45° NE 14:16:01 10° ESE daylight
27 Jul - 15:47:14 10° NW 15:53:30 65° WSW 15:59:44 10° SSE daylight
27 Jul - 17:31:53 10° WNW 17:35:39 17° WSW 17:39:23 10° SW daylight
28 Jul - 06:32:59 10° S 06:37:40 30° ESE 06:42:46 10° NE daylight
28 Jul - 08:14:47 10° SW 08:20:23 73° NW 08:26:32 10° NE daylight
28 Jul - 09:59:24 10° W 10:04:34 31° NNW 10:10:03 10° NE daylight
28 Jul - 11:44:37 10° NW 11:49:34 25° N 11:54:41 10° ENE daylight
28 Jul - 13:28:36 10° NW 13:34:24 38° NNE 13:40:19 10° E daylight
28 Jul - 15:11:53 10° NW 15:18:15 83° SW 15:24:34 10° SE daylight
28 Jul - 16:55:57 10° WNW 17:00:40 22° WSW 17:05:21 10° SSW daylight
